This is the latest recevied weather packets stored in our database for station/object KN6WGU. If no packets are shown the sender has not sent any weather packets the latest 10 day(s).
| Time | Temp. | Humidity | Pressure | Rain* | Wind** | Luminosity | Snow |
|---|---|---|---|---|---|---|---|
| 1778067585 | 8.89° C | 78% | 1002.9 hPa | 0 mm | - | 18 W/m² | - |
| 1778067283 | 8.33° C | 81% | 1002.9 hPa | 0 mm | - | 12 W/m² | - |
| 1778066979 | 8.33° C | 82% | 1002.8 hPa | 0 mm | - | 12 W/m² | - |
| 1778066677 | 8.33° C | 83% | 1002.6 hPa | 0 mm | - | 17 W/m² | - |
| 1778066373 | 8.33° C | 86% | 1002.2 hPa | 0 mm | - | 14 W/m² | - |
| 1778066072 | 7.78° C | 87% | 1002.2 hPa | 0 mm | - | 9 W/m² | - |
| 1778065768 | 7.78° C | 88% | 1001.9 hPa | 0 mm | - | 10 W/m² | - |
| 1778065466 | 7.78° C | 90% | 1002 hPa | 0 mm | - | 10 W/m² | - |
| 1778065162 | 7.78° C | 90% | 1002.2 hPa | 0 mm | - | 6 W/m² | - |
| 1778064859 | 7.78° C | 91% | 1002 hPa | 0 mm | - | 3 W/m² | - |
| 1778064556 | 7.78° C | 92% | 1001.7 hPa | 0 mm | - | 3 W/m² | - |
| 1778064254 | 7.78° C | 92% | 1001.5 hPa | 0 mm | - | 4 W/m² | - |
| 1778063952 | 7.78° C | 92% | 1001.5 hPa | 0 mm | - | 2 W/m² | - |
| 1778063649 | 7.78° C | 93% | 1001.6 hPa | 0 mm | - | 1 W/m² | - |
| 1778063346 | 7.78° C | 92% | 1001.5 hPa | 0 mm | - | 1 W/m² | - |
| 1778063044 | 7.78° C | 93% | 1001.4 hPa | 0 mm | - | 1 W/m² | - |
| 1778062741 | 7.78° C | 93% | 1001.6 hPa | 0 mm | - | 1 W/m² | - |
| 1778062437 | 7.78° C | 95% | 1002 hPa | 0 mm | - | 0 W/m² | - |
| 1778062135 | 7.78° C | 97% | 1002.1 hPa | 0 mm | - | 0 W/m² | - |
| 1778061833 | 7.22° C | 98% | 1002.1 hPa | 0 mm | - | 0 W/m² | - |
| 1778061531 | 7.78° C | 98% | 1001.8 hPa | 0 mm | - | 0 W/m² | - |
| 1778061229 | 7.78° C | 98% | 1001.6 hPa | 0 mm | - | 0 W/m² | - |
| 1778060925 | 7.78° C | 98% | 1001.2 hPa | 0 mm | - | 0 W/m² | - |
| 1778060623 | 7.78° C | 98% | 1001.2 hPa | 0 mm | - | 0 W/m² | - |
| 1778060315 | 7.78° C | 98% | 1001.2 hPa | 1.27 mm | - | 0 W/m² | - |
* Rain latest hour (hover to see other rain measurements)
** Current wind speed in m/s (hover to see current wind gust speed)